CST,Max TemperatureF,Mean TemperatureF,Min TemperatureF,Max Dew PointF,MeanDew PointF,Min DewpointF,Max Humidity, Mean Humidity, Min Humidity, Max Sea Level PressureIn, Mean Sea Level PressureIn, Min Sea Level PressureIn, Max VisibilityMiles, Mean VisibilityMiles, Min VisibilityMiles, Max Wind SpeedMPH, Mean Wind SpeedMPH, Max Gust SpeedMPH,PrecipitationIn, CloudCover, Events, WindDirDegrees
2013-2-1,52,37,22,29,20,11,75,56,37,30.43,30.29,30.14,10,10,10,15,8,,0.00,0,,125
2013-2-2,61,47,33,35,30,28,81,58,30,30.32,30.25,30.13,10,10,10,16,9,20,0.00,0,,9
2013-2-3,62,48,33,35,31,27,78,53,30,30.31,30.16,29.88,10,10,10,16,5,23,0.00,3,,156
2013-2-4,68,56,45,46,34,28,63,45,23,29.94,29.85,29.80,10,10,10,15,10,23,0.00,3,,27
2013-2-5,64,50,35,53,45,28,100,89,58,30.04,30.00,29.90,10,6,0,10,5,,0.00,4,Fog,60
2013-2-6,68,58,48,61,55,48,100,97,65,30.01,29.94,29.78,10,5,0,17,5,25,0.00,8,Fog,142
2013-2-7,66,56,44,57,52,33,100,85,56,30.18,29.84,29.75,10,10,10,29,13,39,0.00,6,Rain,146
2013-2-8,57,44,32,32,28,20,81,53,23,30.30,30.20,30.11,10,10,10,17,10,,0.00,0,,61
2013-2-9,51,46,40,52,44,32,100,90,66,30.10,29.84,29.66,10,6,2,26,14,32,0.01,7,Rain,147
2013-2-10,62,50,39,54,42,22,100,78,23,30.04,29.75,29.67,10,6,0,16,9,,0.01,3,Fog-Rain,249
2013-2-11,56,46,35,29,25,22,66,48,28,30.21,30.11,30.05,10,10,10,17,11,18,0.00,2,,50
2013-2-12,43,38,33,38,35,29,100,92,61,30.09,30.00,29.93,10,9,4,20,12,25,0.76,8,Rain-Snow-Thunderstorm,18
2013-2-13,56,42,29,34,30,22,98,69,26,30.11,30.06,29.99,10,10,5,9,4,,0.00,1,,276
2013-2-14,64,47,30,39,32,26,90,62,25,30.21,30.06,29.99,10,10,10,24,6,30,0.00,1,,25
2013-2-15,44,38,32,36,23,18,78,57,37,30.44,30.36,30.24,10,10,10,20,13,24,0.00,5,,20
2013-2-16,54,41,28,30,27,23,92,63,35,30.42,30.28,30.09,10,10,10,14,5,24,0.00,0,,235
2013-2-17,73,53,33,36,29,22,81,46,15,30.08,29.89,29.72,10,10,10,25,9,32,0.00,0,,187
2013-2-18,58,50,36,48,35,25,89,55,29,30.14,29.84,29.63,10,10,10,26,15,36,0.00,0,,311
2013-2-19,56,44,32,28,25,22,71,50,27,30.32,30.21,30.13,10,10,10,13,7,18,0.00,1,,98
2013-2-20,46,40,35,39,35,25,100,87,43,30.15,30.03,29.80,10,9,5,24,14,36,0.44,8,Rain,122
2013-2-21,46,36,26,38,33,18,100,89,67,30.04,29.74,29.68,10,8,2,23,13,31,0.51,7,Rain-Thunderstorm,9
2013-2-22,42,32,23,24,19,15,79,63,47,30.20,30.10,30.01,10,10,10,18,11,23,0.00,0,,10
2013-2-23,46,35,24,30,25,20,84,71,53,30.14,30.02,29.88,10,10,9,9,6,,0.00,2,Snow,142
2013-2-24,65,48,31,42,36,28,84,62,41,29.86,29.74,29.62,10,10,10,24,11,30,0.00,1,Thunderstorm,135
2013-2-25,51,42,33,43,37,30,100,91,62,29.74,29.58,29.50,10,8,2,29,18,38,0.51,8,Rain-Snow-Thunderstorm,10
2013-2-26,49,41,33,33,30,29,87,73,48,29.93,29.82,29.73,10,10,10,24,17,34,0.00,4,,337
2013-2-27,47,38,30,28,26,22,79,61,37,30.25,30.14,29.94,10,10,10,28,13,36,0.00,1,,341
2013-2-28,53,42,31,28,26,22,79,58,31,30.29,30.26,30.22,10,10,10,20,8,29,0.00,0,,335